Christchurch, New Zealand

3:27 PM NZST on April 30, 2017 (GMT +1200)
Christchurch International

Weather History for NZCH - May, 2014

Change the Weather History Date:

Sunday, May 4, 2014

  Actual Average Record
Temperature  
Mean Temperature 52 °F -  
Max Temperature 55 °F 55 °F 78 °F (2002)
Min Temperature 48 °F 37 °F 30 °F (1999)
Degree Days  
Heating Degree Days 14    
Growing Degree Days 2 (Base 50)    
Moisture  
Dew Point 50 °F    
Average Humidity 97    
Maximum Humidity 100    
Minimum Humidity 88    
Precipitation  
Precipitation 0.00 in - - ()
Sea Level Pressure  
Sea Level Pressure 29.97 in    
Wind  
Wind Speed 6 mph ()    
Max Wind Speed 15 mph    
Max Gust Speed -    
Visibility 4.8 miles    
Events Fog    
Averages and records for this station are not official NWS values.
T = Trace of Precipitation, MM = Missing Value Source: Averaged Metar Reports

Daily Weather History Graph

Daily Weather History Graph

Search for Another Location

Airport or City:

Trip Planner

Search our weather history database for the weather conditions in past years. The results will help you decide how hot, cold, wet, or windy it might be!

Date:

Astronomy

May. 04, 2014 Rise Set
Actual Time 7:24 AM NZST 5:28 PM NZST
Civil Twilight 6:53 AM NZST 5:58 PM NZST
Nautical Twilight 6:19 AM NZST 6:32 PM NZST
Astronomical Twilight 5:46 AM NZST 7:06 PM NZST
Moon 11:32 AM NZST (5/4) 9:28 PM NZST (5/4)
Length of Visible Light 11h 04m
Length of Day
10h 04m
Waxing Crescent, 22% of the Moon is Illuminated
May 4
Waxing Crescent
May 7
First Quarter
May 15
Full
May 22
Last Quarter
May 29
New

Hourly Weather History & Observations

Time (NZST) Temp. Dew Point Humidity Pressure Visibility Wind Dir Wind Speed Gust Speed Precip Events Conditions
12:00 AM 50.0 °F 50.0 °F 100% 29.95 in 0.2 mi North 2.3 mph - N/A Fog Fog
12:30 AM 50.0 °F 50.0 °F 100% 29.98 in 0.1 mi NNE 4.6 mph - N/A Fog Fog
1:00 AM 50.0 °F 50.0 °F 100% 29.98 in 0.1 mi North 3.5 mph - N/A Fog Fog
1:30 AM 50.0 °F 50.0 °F 100% 29.98 in 0.1 mi NE 2.3 mph - N/A Fog Fog
2:00 AM 50.0 °F 50.0 °F 100% 29.98 in 0.1 mi ENE 3.5 mph - N/A Fog Fog
2:30 AM 50.0 °F 50.0 °F 100% 29.98 in 0.1 mi NNE 4.6 mph - N/A Fog Fog
3:00 AM 50.0 °F 50.0 °F 100% 29.98 in 0.2 mi NE 5.8 mph - N/A Fog Fog
3:30 AM 50.0 °F 50.0 °F 100% 29.98 in 0.2 mi ENE 5.8 mph - N/A Fog Fog
4:00 AM 50.0 °F 50.0 °F 100% 29.98 in 0.4 mi NE 4.6 mph - N/A Fog Fog
4:30 AM 50.0 °F 50.0 °F 100% 29.98 in 0.2 mi ENE 6.9 mph - N/A Fog Fog
5:00 AM 50.0 °F 50.0 °F 100% 29.98 in - ENE 4.6 mph - N/A Fog Fog
5:30 AM 50.0 °F 50.0 °F 100% 29.98 in 1.6 mi ENE 5.8 mph - N/A   Overcast
6:00 AM 48.2 °F 48.2 °F 100% 30.01 in 6.2 mi ENE 8.1 mph - N/A   Overcast
6:30 AM 48.2 °F 48.2 °F 100% 30.01 in 6.2 mi ENE 8.1 mph - N/A   Overcast
7:00 AM 48.2 °F 48.2 °F 100% 30.01 in 6.2 mi ENE 8.1 mph - N/A   Overcast
7:30 AM 48.2 °F 48.2 °F 100% 30.01 in 6.2 mi ENE 8.1 mph - N/A   Overcast
8:00 AM 48.2 °F 48.2 °F 100% 30.01 in 6.2 mi ENE 6.9 mph - N/A   Overcast
8:30 AM 50.0 °F 48.2 °F 94% 30.04 in 6.2 mi NE 8.1 mph - N/A   Overcast
9:00 AM 50.0 °F 50.0 °F 100% 30.04 in 6.2 mi NE 6.9 mph - N/A   Overcast
9:30 AM 50.0 °F 50.0 °F 100% 30.04 in 6.2 mi ENE 10.4 mph - N/A   Overcast
10:00 AM 51.8 °F 50.0 °F 94% 30.01 in 6.2 mi ENE 8.1 mph - N/A   Overcast
10:30 AM 51.8 °F 50.0 °F 94% 30.04 in 6.2 mi NE 8.1 mph - N/A   Overcast
11:00 AM 53.6 °F 50.0 °F 88% 30.04 in 6.2 mi ENE 9.2 mph - N/A   Overcast
11:30 AM 51.8 °F 50.0 °F 94% 30.01 in 6.2 mi East 9.2 mph - N/A   Overcast
12:00 PM 51.8 °F 50.0 °F 94% 30.01 in 6.2 mi ENE 10.4 mph - N/A   Overcast
12:30 PM 53.6 °F 50.0 °F 88% 30.01 in 6.2 mi ENE 11.5 mph - N/A   Overcast
1:00 PM 53.6 °F 51.8 °F 94% 29.98 in 6.2 mi ENE 9.2 mph - N/A   Overcast
1:30 PM 53.6 °F 51.8 °F 94% 29.98 in 6.2 mi ENE 10.4 mph - N/A   Overcast
2:00 PM 55.4 °F 51.8 °F 88% 29.98 in 6.2 mi NE 10.4 mph - N/A   Overcast
2:30 PM 55.4 °F 51.8 °F 88% 29.95 in 6.2 mi ENE 11.5 mph - N/A   Overcast
3:00 PM 53.6 °F 51.8 °F 94% 29.98 in 6.2 mi ENE 12.7 mph - N/A   Overcast
3:30 PM 53.6 °F 51.8 °F 94% 29.95 in 6.2 mi ENE 13.8 mph - N/A   Overcast
4:00 PM 53.6 °F 50.0 °F 88% 29.95 in 6.2 mi ENE 13.8 mph - N/A   Overcast
4:30 PM 51.8 °F 50.0 °F 94% 29.95 in 6.2 mi ENE 15.0 mph - N/A   Overcast
5:00 PM 51.8 °F 50.0 °F 94% 29.95 in 6.2 mi ENE 13.8 mph - N/A   Overcast
5:30 PM 51.8 °F 50.0 °F 94% 29.92 in 6.2 mi ENE 12.7 mph - N/A   Overcast
6:00 PM 51.8 °F 50.0 °F 94% 29.95 in 6.2 mi NE 12.7 mph - N/A   Mostly Cloudy
6:30 PM 51.8 °F 50.0 °F 94% 29.95 in 6.2 mi ENE 11.5 mph - N/A   Mostly Cloudy
7:00 PM 51.8 °F 50.0 °F 94% 29.95 in 6.2 mi ENE 9.2 mph - N/A   Mostly Cloudy
7:30 PM 51.8 °F 50.0 °F 94% 29.92 in 6.2 mi NE 8.1 mph - N/A   Overcast
8:00 PM 51.8 °F 50.0 °F 94% 29.92 in 6.2 mi NNE 5.8 mph - N/A   Mostly Cloudy
8:30 PM 50.0 °F 50.0 °F 100% 29.92 in 6.2 mi NNE 5.8 mph - N/A   Mostly Cloudy
9:00 PM 50.0 °F 50.0 °F 100% 29.92 in 6.2 mi NNE 6.9 mph - N/A   Unknown
9:30 PM 51.8 °F 50.0 °F 94% 29.92 in 6.2 mi NNE 4.6 mph - N/A   Unknown
10:00 PM 51.8 °F 51.8 °F 100% 29.92 in 6.2 mi NNE 4.6 mph - N/A   Unknown
10:30 PM 51.8 °F 51.8 °F 100% 29.89 in 6.2 mi ENE 6.9 mph - N/A   Mostly Cloudy
11:00 PM 53.6 °F 53.6 °F 100% 29.89 in 6.2 mi NE 9.2 mph - N/A   Mostly Cloudy
11:30 PM 53.6 °F 53.6 °F 100% 29.89 in 5.6 mi ENE 9.2 mph - N/A   Overcast